Darstellungsparameter: Aktuell verwendete Einstellungen:
Skalierung der Graphiken ... ?
xyx+y,   Skalierungsfaktor:      Skalierung: Modus: x, Faktor: 1
Darstellungszeitraum ... ?
Vom - - bis: - -   Zeitraum: 15.07.2021 - 14.10.2021
Min/Max/Avg-Anzeige ... ?
Zeige MMA aktuell
Zeige MMA Monat
Zeige MMA alles
Zeige --A aktuell
Zeige --A Monat
Zeige --A alles
Keine MMA-Anzeige
MMA:
Average (ber die Originaldaten)
MMA-Basis: 15.07.2021 - 14.10.2021
Quicknavigation für Darstellung... ?
Tage:      1T, 2T, 3T, 5T -1T -2T -3T -5T +1T +2T +3T +5T
Wochen: 1W, 2W, 3W -1W -2W -3W +1W +2W +3W
Monate: 1M, 3M, 6M -1M -3M -6M +1M +3M +6M
Jahre:    1J, 3J, 5J, 10J -1J -3J -5J -10J +1J +3J +5J +10J
Nutze für die Darstellung ... ?
Originaldaten oder ...
Mittelwerte Minima Maxima auf...
Stundenbasis Tagesbasis Wochenbasis
Monatsbasis Jahresbasis      Datenbasis: Mittelwerte auf Tagesbasis
Darstellen als:
Statistik (Auto) Statistik J:M      Darstellung:
Zur Graphik,    zurück zur Übersicht aller Sensoren.
 
Tabellarische Datenbersicht: ?
 
Sensor: Nr:Datum:Temp:Abs-Feuchte:Windchill:Wind:
Aussen-T/F 1 15-07-2021 00:00:00 19.04028 C 14.41 g/m*3 19.04 C 2.32882 km/h
2 16-07-2021 00:00:00 18.48299 C 14.12 g/m*3 18.48 C 5.37014 km/h
3 17-07-2021 00:00:00 19.88681 C 14.39 g/m*3 19.89 C 5.26458 km/h
4 18-07-2021 00:00:00 20.82257 C 14.23 g/m*3 20.82 C 6.69063 km/h
5 19-07-2021 00:00:00 18.94792 C 13.09 g/m*3 18.95 C 5.35521 km/h
6 20-07-2021 00:00:00 17.74097 C 11.78 g/m*3 17.74 C 3.68924 km/h
7 21-07-2021 00:00:00 18.1066 C 11.55 g/m*3 18.11 C 3.13924 km/h
8 22-07-2021 00:00:00 18.83368 C 12.67 g/m*3 18.83 C 1.57083 km/h
9 23-07-2021 00:00:00 20.0434 C 13.41 g/m*3 20.04 C 2.2809 km/h
10 24-07-2021 00:00:00 18.05556 C 14.22 g/m*3 18.06 C 1.81597 km/h
11 25-07-2021 00:00:00 19.12254 C 14.63 g/m*3 19.12 C 3.21373 km/h
12 26-07-2021 00:00:00 19.75139 C 14.08 g/m*3 19.75 C 5.21181 km/h
13 27-07-2021 00:00:00 18.37014 C 13.79 g/m*3 18.37 C 3.20313 km/h
14 28-07-2021 00:00:00 18.33924 C 13.37 g/m*3 18.34 C 6.67326 km/h
15 29-07-2021 00:00:00 18.12465 C 11.91 g/m*3 18.12 C 7.2559 km/h
16 30-07-2021 00:00:00 18.71042 C 12.1 g/m*3 18.71 C 6.20035 km/h
17 31-07-2021 00:00:00 18.27676 C 11.33 g/m*3 18.28 C 9.38556 km/h
18 01-08-2021 00:00:00 17.03264 C 11.96 g/m*3 17.03 C 5.34028 km/h
19 02-08-2021 00:00:00 15.90278 C 12.39 g/m*3 15.9 C 3.55347 km/h
20 03-08-2021 00:00:00 16.08889 C 12.52 g/m*3 16.09 C 2.00139 km/h
21 04-08-2021 00:00:00 16.26181 C 12.55 g/m*3 16.26 C 1.64618 km/h
22 05-08-2021 00:00:00 17.575 C 13.18 g/m*3 17.58 C 1.77361 km/h
23 06-08-2021 00:00:00 18.07951 C 13.14 g/m*3 18.08 C 6.92743 km/h
24 07-08-2021 00:00:00 17.24306 C 12.51 g/m*3 17.24 C 2.12986 km/h
25 08-08-2021 00:00:00 16.03063 C 11.87 g/m*3 16.03 C 6.99373 km/h
Sensor: Nr:Datum:Temp:Abs-Feuchte:Windchill:Wind:
Aussen-T/F 26 09-08-2021 00:00:00 15.70461 C 11.41 g/m*3 15.7 C 3.17834 km/h
27 10-08-2021 00:00:00 17.57666 C 12.63 g/m*3 17.58 C 4.76272 km/h
28 11-08-2021 00:00:00 18.75245 C 13.7 g/m*3 18.75 C 0.79545 km/h
29 12-08-2021 00:00:00 20.1691 C 14.6 g/m*3 20.17 C 1.32153 km/h
30 13-08-2021 00:00:00 20.75729 C 15.18 g/m*3 20.76 C 2.97083 km/h
31 14-08-2021 00:00:00 19.68056 C 14.17 g/m*3 19.68 C 2.80625 km/h
32 15-08-2021 00:00:00 18.95486 C 13.82 g/m*3 18.95 C 1.39826 km/h
33 16-08-2021 00:00:00 16.7316 C 11.99 g/m*3 16.73 C 8.29201 km/h
34 17-08-2021 00:00:00 13.51285 C 10.47 g/m*3 13.51 C 7.6434 km/h
35 18-08-2021 00:00:00 16.68368 C 12.84 g/m*3 16.68 C 5.44896 km/h
36 19-08-2021 00:00:00 18.23472 C 13.36 g/m*3 18.23 C 6.95833 km/h
37 20-08-2021 00:00:00 17.56042 C 13.02 g/m*3 17.56 C 2.08472 km/h
38 21-08-2021 00:00:00 18.3684 C 13.73 g/m*3 18.37 C 1.52847 km/h
39 22-08-2021 00:00:00 18.26146 C 14.09 g/m*3 18.26 C 4.12014 km/h
40 23-08-2021 00:00:00 17.50521 C 13.23 g/m*3 17.51 C 2.96111 km/h
41 24-08-2021 00:00:00 15.66146 C 11.14 g/m*3 15.66 C 3.90313 km/h
42 25-08-2021 00:00:00 15.02708 C 10.55 g/m*3 15.03 C 1.83333 km/h
43 26-08-2021 00:00:00 16.40174 C 11.39 g/m*3 16.4 C 6.78056 km/h
44 27-08-2021 00:00:00 14.92917 C 11.24 g/m*3 14.93 C 5.78715 km/h
45 28-08-2021 00:00:00 15.44653 C 12.35 g/m*3 15.45 C 1.7809 km/h
46 29-08-2021 00:00:00 15.32778 C 12.24 g/m*3 15.33 C 5.13889 km/h
47 30-08-2021 00:00:00 17.17202 C 12.79 g/m*3 17.17 C 4.32294 km/h
48 31-08-2021 00:00:00 15.90451 C 11.81 g/m*3 15.9 C 4.22708 km/h
49 01-09-2021 00:00:00 15.32292 C 11.29 g/m*3 15.32 C 2.77882 km/h
50 02-09-2021 00:00:00 15.57326 C 11.45 g/m*3 15.57 C 2.15972 km/h
Sensor: Nr:Datum:Temp:Abs-Feuchte:Windchill:Wind:
Aussen-T/F 51 03-09-2021 00:00:00 15.62043 C 11.47 g/m*3 15.62 C 1.29574 km/h
52 04-09-2021 00:00:00 16.59444 C 12.1 g/m*3 16.59 C 1.47535 km/h
53 05-09-2021 00:00:00 16.91007 C 12.65 g/m*3 16.91 C 0.80069 km/h
54 06-09-2021 00:00:00 17.19123 C 12.79 g/m*3 17.19 C 1.01754 km/h
55 07-09-2021 00:00:00 17.42293 C 12.77 g/m*3 17.42 C 0.62556 km/h
56 08-09-2021 00:00:00 17.4852 C 12.38 g/m*3 17.49 C 1.72347 km/h
57 09-09-2021 00:00:00 18.16224 C 13.65 g/m*3 18.16 C 2.72517 km/h
58 10-09-2021 00:00:00 20.31875 C 15.55 g/m*3 20.32 C 3.35139 km/h
59 11-09-2021 00:00:00 18.95243 C 14.07 g/m*3 18.95 C 1.82674 km/h
60 12-09-2021 00:00:00 16.74271 C 11.85 g/m*3 16.74 C 2.36979 km/h
61 13-09-2021 00:00:00 14.9375 C 11.26 g/m*3 14.94 C 0.90069 km/h
62 14-09-2021 00:00:00 16.50764 C 13.03 g/m*3 16.51 C 0.66111 km/h
63 15-09-2021 00:00:00 19.16389 C 15.39 g/m*3 19.16 C 2.25938 km/h
64 16-09-2021 00:00:00 16.22812 C 12.2 g/m*3 16.23 C 3.74896 km/h
65 17-09-2021 00:00:00 14.5809 C 11.23 g/m*3 14.58 C 0.69549 km/h
66 18-09-2021 00:00:00 14.56979 C 11.26 g/m*3 14.57 C 0.18889 km/h
67 19-09-2021 00:00:00 13.99062 C 10.48 g/m*3 13.99 C 2.46319 km/h
68 20-09-2021 00:00:00 13.42153 C 9.74 g/m*3 13.42 C 2.05347 km/h
69 21-09-2021 00:00:00 12.21701 C 8.63 g/m*3 12.22 C 1.90556 km/h
70 22-09-2021 00:00:00 11.0684 C 9 g/m*3 11.07 C 0.24444 km/h
71 23-09-2021 00:00:00 13.46458 C 9.81 g/m*3 13.46 C 3.08611 km/h
72 24-09-2021 00:00:00 15.75139 C 11.46 g/m*3 15.75 C 5.2 km/h
73 25-09-2021 00:00:00 14.55035 C 11.21 g/m*3 14.55 C 0.02778 km/h
74 26-09-2021 00:00:00 16.16667 C 12.73 g/m*3 16.17 C 1.00764 km/h
75 27-09-2021 00:00:00 16.01493 C 12.56 g/m*3 16.01 C 1.86146 km/h
Sensor: Nr:Datum:Temp:Abs-Feuchte:Windchill:Wind:
Aussen-T/F 76 28-09-2021 00:00:00 12.70486 C 10.13 g/m*3 12.7 C 2.32951 km/h
77 29-09-2021 00:00:00 11.46528 C 9.04 g/m*3 11.47 C 5.54514 km/h
78 30-09-2021 00:00:00 10.65104 C 8.33 g/m*3 10.24 C 5.93819 km/h
79 01-10-2021 00:00:00 11.02917 C 8.66 g/m*3 11.03 C 2.28993 km/h
80 02-10-2021 00:00:00 15.01458 C 11.2 g/m*3 15.01 C 2.77188 km/h
81 03-10-2021 00:00:00 18.50799 C 12.03 g/m*3 18.51 C 7.05417 km/h
82 04-10-2021 00:00:00 13.61597 C 9.94 g/m*3 13.62 C 2.47778 km/h
83 05-10-2021 00:00:00 12.23056 C 9.63 g/m*3 12.23 C 2.73542 km/h
84 06-10-2021 00:00:00 11.90382 C 9.14 g/m*3 11.9 C 9.46736 km/h
85 07-10-2021 00:00:00 12.24826 C 9.75 g/m*3 12.25 C 2.25278 km/h
86 08-10-2021 00:00:00 10.55104 C 8.99 g/m*3 10.55 C 1.36563 km/h
87 09-10-2021 00:00:00 9.57049 C 8.41 g/m*3 9.57 C 1.41181 km/h
88 10-10-2021 00:00:00 7.3184 C 7.33 g/m*3 7.32 C 1.06736 km/h
89 11-10-2021 00:00:00 8.84479 C 7.95 g/m*3 8.84 C 2.35417 km/h
90 12-10-2021 00:00:00 10.04271 C 9 g/m*3 10.04 C 2.00382 km/h
91 13-10-2021 00:00:00 8.32569 C 7.99 g/m*3 8.33 C 2.06319 km/h
92 14-10-2021 00:00:00 10.88194 C 9.12 g/m*3 10.88 C 4.49896 km/h

Maximal/Minimal-Werte vom 15.07.2021 - 14.10.2021

Sensor Min Max Avg
Temp
(Aussen-T/F)
4 °C
11-10-2021  03:35:00
30.6 °C
12-08-2021  18:25:00
16.01 °C
Abs-Feuchte
(Aussen-T/F)
7.33 g/m*3
10-10-2021  00:00:00
15.55 g/m*3
10-09-2021  00:00:00
11.78 g/m*3
Windchill
(Aussen-T/F)
7.32 C
10-10-2021  00:00:00
20.82 C
18-07-2021  00:00:00
15.83 C

Die Daten stammen von einer Davis Vantage Pro 2 Wetter-Station und werden unter Linux mit der Software wview2wettercgi und aufbereitet. Alle Angaben erfolgen ohne Gewähr für ihre Vollständigkeit oder Richtigkeit.
Kontakt: Rainer Krienke krienke@uni-koblenz.de . Meine Webseiten an der Uni Koblenz oder privat.
Version: $Revision: 0.78 $